Time,TemperatureF,DewpointF,PressureIn,WindDirection,WindDirectionDegrees,WindSpeedMPH,WindSpeedGustMPH,Humidity,HourlyPrecipIn,Conditions,Clouds,dailyrainin,SolarRadiationWatts/m^2,SoftwareType,DateUTC
2013-10-24 00:02:00,49.0,48.0,-100.00,NE,51,1.0,4.0,98,0.00,,,0.01,0.000000,,2013-10-24 07:02:00,
2013-10-24 00:12:00,49.0,48.0,-100.00,NE,51,1.0,4.0,98,0.00,,,0.01,0.000000,,2013-10-24 07:12:00,
2013-10-24 00:21:00,49.0,48.0,-100.00,NE,51,1.0,4.0,98,0.00,,,0.01,0.000000,,2013-10-24 07:21:00,
2013-10-24 00:32:00,49.0,48.0,-100.00,NE,51,1.0,4.0,98,0.00,,,0.01,0.000000,,2013-10-24 07:32:00,
2013-10-24 01:11:00,49.0,48.0,-100.00,North,353,0.0,4.0,98,0.00,,,0.01,0.000000,,2013-10-24 08:11:00,
2013-10-24 01:21:00,49.0,48.0,-100.00,North,353,0.0,4.0,98,0.00,,,0.01,0.000000,,2013-10-24 08:21:00,
2013-10-24 01:32:00,49.0,48.0,-100.00,North,353,0.0,4.0,98,0.00,,,0.01,0.000000,,2013-10-24 08:32:00,
2013-10-24 01:33:00,48.0,47.0,-100.00,ENE,58,0.0,3.0,98,0.00,,,0.01,0.000000,,2013-10-24 08:33:00,
2013-10-24 01:53:00,48.0,47.0,-100.00,ENE,58,0.0,3.0,98,0.00,,,0.01,0.000000,,2013-10-24 08:53:00,
2013-10-24 02:01:00,48.0,47.0,-100.00,ENE,58,0.0,3.0,98,0.00,,,0.01,0.000000,,2013-10-24 09:01:00,
2013-10-24 02:12:00,48.0,47.0,-100.00,ENE,58,0.0,3.0,98,0.00,,,0.01,0.000000,,2013-10-24 09:12:00,
2013-10-24 02:22:00,48.0,47.0,-100.00,ENE,58,0.0,3.0,98,0.00,,,0.01,0.000000,,2013-10-24 09:22:00,
2013-10-24 02:33:00,48.0,47.0,-100.00,SE,127,0.0,3.0,98,0.00,,,0.01,0.000000,,2013-10-24 09:33:00,
2013-10-24 03:12:00,48.0,47.0,-100.00,SE,127,0.0,3.0,98,0.00,,,0.01,0.000000,,2013-10-24 10:12:00,
2013-10-24 03:23:00,48.0,47.0,-100.00,SE,127,0.0,3.0,98,0.00,,,0.01,0.000000,,2013-10-24 10:23:00,
2013-10-24 03:33:00,48.0,47.0,-100.00,WSW,240,0.0,3.0,98,0.00,,,0.01,0.000000,,2013-10-24 10:33:00,
2013-10-24 03:53:00,48.0,47.0,-100.00,WSW,240,0.0,3.0,98,0.00,,,0.01,0.000000,,2013-10-24 10:53:00,
2013-10-24 04:02:00,48.0,47.0,-100.00,WSW,240,0.0,3.0,98,0.00,,,0.01,0.000000,,2013-10-24 11:02:00,
2013-10-24 04:12:00,48.0,47.0,-100.00,WSW,240,0.0,3.0,98,0.00,,,0.01,0.000000,,2013-10-24 11:12:00,
2013-10-24 04:22:00,48.0,47.0,-100.00,WSW,240,0.0,3.0,98,0.00,,,0.01,0.000000,,2013-10-24 11:22:00,
2013-10-24 04:53:00,47.0,46.0,-100.00,WSW,254,0.0,2.0,98,0.01,,,-99.99,0.000000,,2013-10-24 11:53:00,
2013-10-24 05:01:00,47.0,46.0,-100.00,WSW,254,0.0,2.0,98,0.01,,,-99.99,0.000000,,2013-10-24 12:01:00,
2013-10-24 05:12:00,47.0,46.0,-100.00,WSW,254,0.0,2.0,98,0.01,,,-99.99,0.000000,,2013-10-24 12:12:00,
2013-10-24 05:22:00,47.0,46.0,-100.00,WSW,254,0.0,2.0,98,0.01,,,-99.99,0.000000,,2013-10-24 12:22:00,
2013-10-24 05:32:00,47.0,46.0,-100.00,WSW,254,0.0,2.0,98,0.01,,,-99.99,0.000000,,2013-10-24 12:32:00,
2013-10-24 05:52:00,47.0,46.0,-100.00,ENE,74,0.0,3.0,98,0.00,,,0.02,0.000000,,2013-10-24 12:52:00,
2013-10-24 06:01:00,47.0,46.0,-100.00,ENE,74,0.0,3.0,98,0.00,,,0.02,0.000000,,2013-10-24 13:01:00,
2013-10-24 06:12:00,47.0,46.0,-100.00,ENE,74,0.0,3.0,98,0.00,,,0.02,0.000000,,2013-10-24 13:12:00,
2013-10-24 06:22:00,47.0,46.0,-100.00,ENE,74,0.0,3.0,98,0.00,,,0.02,0.000000,,2013-10-24 13:22:00,
2013-10-24 06:32:00,47.0,46.0,-100.00,ENE,74,0.0,3.0,98,0.00,,,0.02,0.000000,,2013-10-24 13:32:00,
2013-10-24 07:11:00,47.0,46.0,-100.00,North,354,1.0,3.0,98,0.00,,,0.02,0.000000,,2013-10-24 14:11:00,
2013-10-24 07:21:00,47.0,46.0,-100.00,North,354,1.0,3.0,98,0.00,,,0.02,0.000000,,2013-10-24 14:21:00,
2013-10-24 07:32:00,47.0,46.0,-100.00,North,354,1.0,3.0,98,0.00,,,0.02,0.000000,,2013-10-24 14:32:00,
2013-10-24 07:33:00,46.0,45.0,-100.00,NE,49,0.0,3.0,98,0.00,,,0.02,0.000000,,2013-10-24 14:33:00,
2013-10-24 07:52:00,46.0,45.0,-100.00,NE,49,0.0,3.0,98,0.00,,,0.02,0.000000,,2013-10-24 14:52:00,
2013-10-24 08:01:00,46.0,45.0,-100.00,NE,49,0.0,3.0,98,0.00,,,0.02,0.000000,,2013-10-24 15:01:00,
2013-10-24 08:11:00,46.0,45.0,-100.00,NE,49,0.0,3.0,98,0.00,,,0.02,0.000000,,2013-10-24 15:11:00,
2013-10-24 08:21:00,46.0,45.0,-100.00,NE,49,0.0,3.0,98,0.00,,,0.02,0.000000,,2013-10-24 15:21:00,
2013-10-24 08:53:00,46.0,45.0,-100.00,NNW,331,0.0,3.0,98,0.00,,,0.02,5.000000,,2013-10-24 15:53:00,
2013-10-24 09:03:00,46.0,45.0,-100.00,NNW,331,0.0,3.0,98,0.00,,,0.02,5.000000,,2013-10-24 16:03:00,
2013-10-24 09:13:00,46.0,45.0,-100.00,NNW,331,0.0,3.0,98,0.00,,,0.02,5.000000,,2013-10-24 16:13:00,
2013-10-24 09:23:00,46.0,45.0,-100.00,NNW,331,0.0,3.0,98,0.00,,,0.02,5.000000,,2013-10-24 16:23:00,
2013-10-24 09:32:00,46.0,45.0,-100.00,NNW,331,0.0,3.0,98,0.00,,,0.02,5.000000,,2013-10-24 16:32:00,
2013-10-24 09:33:00,46.0,45.0,-100.00,ENE,67,0.0,3.0,98,0.00,,,0.01,35.000000,,2013-10-24 16:33:00,
2013-10-24 09:53:00,46.0,45.0,-100.00,ENE,67,0.0,3.0,98,0.00,,,0.01,35.000000,,2013-10-24 16:53:00,
2013-10-24 10:03:00,46.0,45.0,-100.00,ENE,67,0.0,3.0,98,0.00,,,0.01,35.000000,,2013-10-24 17:03:00,
2013-10-24 10:12:00,46.0,45.0,-100.00,ENE,67,0.0,3.0,98,0.00,,,0.01,35.000000,,2013-10-24 17:12:00,
2013-10-24 10:22:00,46.0,45.0,-100.00,ENE,67,0.0,3.0,98,0.00,,,0.01,35.000000,,2013-10-24 17:22:00,
2013-10-24 10:52:00,47.0,46.0,-100.00,West,279,1.0,4.0,98,0.00,,,0.01,71.000000,,2013-10-24 17:52:00,
2013-10-24 11:02:00,47.0,46.0,-100.00,West,279,1.0,4.0,98,0.00,,,0.01,71.000000,,2013-10-24 18:02:00,
2013-10-24 11:12:00,47.0,46.0,-100.00,West,279,1.0,4.0,98,0.00,,,0.01,71.000000,,2013-10-24 18:12:00,
2013-10-24 11:22:00,47.0,46.0,-100.00,West,279,1.0,4.0,98,0.00,,,0.01,71.000000,,2013-10-24 18:22:00,
2013-10-24 11:32:00,47.0,46.0,-100.00,West,279,1.0,4.0,98,0.00,,,0.01,71.000000,,2013-10-24 18:32:00,
2013-10-24 11:53:00,48.0,47.0,-100.00,NNE,32,1.0,3.0,97,0.00,,,-99.99,117.000000,,2013-10-24 18:53:00,
2013-10-24 12:02:00,48.0,47.0,-100.00,NNE,32,1.0,3.0,97,0.00,,,-99.99,117.000000,,2013-10-24 19:02:00,
2013-10-24 12:11:00,48.0,47.0,-100.00,NNE,32,1.0,3.0,97,0.00,,,-99.99,117.000000,,2013-10-24 19:11:00,
2013-10-24 12:22:00,48.0,47.0,-100.00,NNE,32,1.0,3.0,97,0.00,,,-99.99,117.000000,,2013-10-24 19:22:00,
2013-10-24 12:32:00,48.0,47.0,-100.00,NNE,32,1.0,3.0,97,0.00,,,-99.99,117.000000,,2013-10-24 19:32:00,
2013-10-24 12:53:00,50.0,48.0,-100.00,ENE,65,0.0,3.0,93,0.00,,,0.01,149.000000,,2013-10-24 19:53:00,
2013-10-24 13:02:00,50.0,48.0,-100.00,ENE,65,0.0,3.0,93,0.00,,,0.01,149.000000,,2013-10-24 20:02:00,
2013-10-24 13:11:00,50.0,48.0,-100.00,ENE,65,0.0,3.0,93,0.00,,,0.01,149.000000,,2013-10-24 20:11:00,
2013-10-24 13:22:00,50.0,48.0,-100.00,ENE,65,0.0,3.0,93,0.00,,,0.01,149.000000,,2013-10-24 20:22:00,
2013-10-24 13:32:00,50.0,48.0,-100.00,ENE,65,0.0,3.0,93,0.00,,,0.01,149.000000,,2013-10-24 20:32:00,
2013-10-24 13:33:00,52.0,49.0,-100.00,WSW,250,2.0,5.0,90,0.00,,,0.01,153.000000,,2013-10-24 20:33:00,
2013-10-24 13:53:00,52.0,49.0,-100.00,WSW,250,2.0,5.0,90,0.00,,,0.01,153.000000,,2013-10-24 20:53:00,
2013-10-24 14:02:00,52.0,49.0,-100.00,WSW,250,2.0,5.0,90,0.00,,,0.01,153.000000,,2013-10-24 21:02:00,
2013-10-24 14:12:00,52.0,49.0,-100.00,WSW,250,2.0,5.0,90,0.00,,,0.01,153.000000,,2013-10-24 21:12:00,
2013-10-24 14:21:00,52.0,49.0,-100.00,WSW,250,2.0,5.0,90,0.00,,,0.01,153.000000,,2013-10-24 21:21:00,
2013-10-24 14:33:00,52.0,49.0,-100.00,SW,228,1.0,6.0,90,0.00,,,0.01,147.000000,,2013-10-24 21:33:00,
2013-10-24 14:54:00,52.0,49.0,-100.00,SW,228,1.0,6.0,90,0.00,,,0.01,147.000000,,2013-10-24 21:54:00,
2013-10-24 15:04:00,52.0,49.0,-100.00,SW,228,1.0,6.0,90,0.00,,,0.01,147.000000,,2013-10-24 22:04:00,
2013-10-24 15:13:00,52.0,49.0,-100.00,SW,228,1.0,6.0,90,0.00,,,0.01,147.000000,,2013-10-24 22:13:00,
2013-10-24 15:24:00,52.0,49.0,-100.00,SW,228,1.0,6.0,90,0.00,,,0.01,147.000000,,2013-10-24 22:24:00,
2013-10-24 15:33:00,53.0,49.0,-100.00,NNW,340,1.0,5.0,87,0.00,,,0.01,120.000000,,2013-10-24 22:33:00,
2013-10-24 15:54:00,53.0,49.0,-100.00,NNW,340,1.0,5.0,87,0.00,,,0.01,120.000000,,2013-10-24 22:54:00,
2013-10-24 16:03:00,53.0,49.0,-100.00,NNW,340,1.0,5.0,87,0.00,,,0.01,120.000000,,2013-10-24 23:03:00,
2013-10-24 16:12:00,53.0,49.0,-100.00,NNW,340,1.0,5.0,87,0.00,,,0.01,120.000000,,2013-10-24 23:12:00,
2013-10-24 16:22:00,53.0,49.0,-100.00,NNW,340,1.0,5.0,87,0.00,,,0.01,120.000000,,2013-10-24 23:22:00,
2013-10-24 16:53:00,54.0,50.0,-100.00,West,259,3.0,5.0,87,0.00,,,0.01,78.000000,,2013-10-24 23:53:00,
2013-10-24 17:02:00,54.0,50.0,-100.00,West,259,3.0,5.0,87,0.00,,,0.01,78.000000,,2013-10-25 00:02:00,
2013-10-24 17:12:00,54.0,50.0,-100.00,West,259,3.0,5.0,87,0.00,,,0.01,78.000000,,2013-10-25 00:12:00,
2013-10-24 17:21:00,54.0,50.0,-100.00,West,259,3.0,5.0,87,0.00,,,0.01,78.000000,,2013-10-25 00:21:00,
2013-10-24 17:32:00,54.0,50.0,-100.00,West,259,3.0,5.0,87,0.00,,,0.01,78.000000,,2013-10-25 00:32:00,
2013-10-24 18:11:00,53.0,50.0,-100.00,West,261,2.0,5.0,88,0.00,,,0.01,34.000000,,2013-10-25 01:11:00,
2013-10-24 18:21:00,53.0,50.0,-100.00,West,261,2.0,5.0,88,0.00,,,0.01,34.000000,,2013-10-25 01:21:00,
2013-10-24 18:32:00,53.0,50.0,-100.00,West,261,2.0,5.0,88,0.00,,,0.01,34.000000,,2013-10-25 01:32:00,
2013-10-24 18:53:00,52.0,49.0,-100.00,West,269,2.0,5.0,90,0.00,,,0.01,5.000000,,2013-10-25 01:53:00,
2013-10-24 19:02:00,52.0,49.0,-100.00,West,269,2.0,5.0,90,0.00,,,0.01,5.000000,,2013-10-25 02:02:00,
2013-10-24 19:12:00,52.0,49.0,-100.00,West,269,2.0,5.0,90,0.00,,,0.01,5.000000,,2013-10-25 02:12:00,
2013-10-24 19:22:00,52.0,49.0,-100.00,West,269,2.0,5.0,90,0.00,,,0.01,5.000000,,2013-10-25 02:22:00,
2013-10-24 19:32:00,52.0,49.0,-100.00,West,269,2.0,5.0,90,0.00,,,0.01,5.000000,,2013-10-25 02:32:00,
2013-10-24 19:33:00,51.0,48.0,-100.00,WSW,253,1.0,4.0,90,0.00,,,0.01,0.000000,,2013-10-25 02:33:00,
2013-10-24 19:52:00,51.0,48.0,-100.00,WSW,253,1.0,4.0,90,0.00,,,0.01,0.000000,,2013-10-25 02:52:00,
2013-10-24 20:03:00,51.0,48.0,-100.00,WSW,253,1.0,4.0,90,0.00,,,0.01,0.000000,,2013-10-25 03:03:00,
2013-10-24 20:12:00,51.0,48.0,-100.00,WSW,253,1.0,4.0,90,0.00,,,0.01,0.000000,,2013-10-25 03:12:00,
2013-10-24 20:23:00,51.0,48.0,-100.00,WSW,253,1.0,4.0,90,0.00,,,0.01,0.000000,,2013-10-25 03:23:00,
2013-10-24 20:33:00,50.0,47.0,-100.00,West,260,1.0,2.0,91,0.00,,,-99.99,0.000000,,2013-10-25 03:33:00,
2013-10-24 20:54:00,50.0,47.0,-100.00,West,260,1.0,2.0,91,0.00,,,-99.99,0.000000,,2013-10-25 03:54:00,
2013-10-24 21:04:00,50.0,47.0,-100.00,West,260,1.0,2.0,91,0.00,,,-99.99,0.000000,,2013-10-25 04:04:00,
2013-10-24 21:14:00,50.0,47.0,-100.00,West,260,1.0,2.0,91,0.00,,,-99.99,0.000000,,2013-10-25 04:14:00,
2013-10-24 21:24:00,50.0,47.0,-100.00,West,260,1.0,2.0,91,0.00,,,-99.99,0.000000,,2013-10-25 04:24:00,
2013-10-24 21:54:00,50.0,47.0,-100.00,ENE,69,0.0,4.0,88,0.00,,,0.01,0.000000,,2013-10-25 04:54:00,
2013-10-24 22:03:00,50.0,47.0,-100.00,ENE,69,0.0,4.0,88,0.00,,,0.01,0.000000,,2013-10-25 05:03:00,
2013-10-24 22:12:00,50.0,47.0,-100.00,ENE,69,0.0,4.0,88,0.00,,,0.01,0.000000,,2013-10-25 05:12:00,
2013-10-24 22:21:00,50.0,47.0,-100.00,ENE,69,0.0,4.0,88,0.00,,,0.01,0.000000,,2013-10-25 05:21:00,
2013-10-24 22:32:00,50.0,47.0,-100.00,ENE,69,0.0,4.0,88,0.00,,,0.01,0.000000,,2013-10-25 05:32:00,
2013-10-24 22:51:00,48.0,46.0,-100.00,East,95,0.0,3.0,93,0.00,,,0.01,0.000000,,2013-10-25 05:51:00,
2013-10-24 23:01:00,48.0,46.0,-100.00,East,95,0.0,3.0,93,0.00,,,0.01,0.000000,,2013-10-25 06:01:00,
2013-10-24 23:11:00,48.0,46.0,-100.00,East,95,0.0,3.0,93,0.00,,,0.01,0.000000,,2013-10-25 06:11:00,
2013-10-24 23:21:00,48.0,46.0,-100.00,East,95,0.0,3.0,93,0.00,,,0.01,0.000000,,2013-10-25 06:21:00,
2013-10-24 23:31:00,48.0,46.0,-100.00,East,95,0.0,3.0,93,0.00,,,0.01,0.000000,,2013-10-25 06:31:00,
2013-10-24 23:51:00,47.0,46.0,-100.00,SSE,162,0.0,2.0,96,0.00,,,0.01,0.000000,,2013-10-25 06:51:00,